Location: Newark
(46.6281°N, 5.7514°E)
Time: 05:12:05
(UTC+00:00)

OTV 5 (USA 277) - Visible Passes

Search period start: 24 October 2019 00:00
Search period end: 03 November 2019 00:00
Orbit: 310 x 324 km, 54.5° (Epoch: 17 October)

Date Brightness Start Highest point End Pass type
(mag) Time Alt. Az. Time Alt. Az. Time Alt. Az.
28 Oct ? 18:38:13 10° SW 18:38:41 14° SW 18:38:41 14° SW visible
29 Oct ? 17:19:46 10° S 17:21:26 15° SE 17:22:16 13° ESE visible
29 Oct ? 18:52:45 10° WSW 18:53:10 13° WSW 18:53:10 13° WSW visible
30 Oct ? 17:33:14 10° SSW 17:35:47 35° SE 17:36:39 27° E visible
31 Oct ? 17:47:31 10° SW 17:50:16 89° N 17:50:56 47° NE visible
01 Nov ? 18:02:15 10° W 18:04:52 40° NNW 18:05:08 39° N visible
02 Nov ? 18:17:16 10° WNW 18:19:15 23° NNW 18:19:15 23° NNW visible
